Location: Tierz
(42.1336°N, 0.3549°W)
Time: 12:10:18
(UTC+00:00)

CZ-2C R/B - Pass Details

Date: 29 October 2020
Orbit: 703 x 909 km, 98.1° (Epoch: 29 November)

Event Time Altitude Azimuth Distance (km) Brightness Sun altitude
Rises 19:14:07 0° 181° (S) 3,521 6.4 -25.6°
Reaches altitude 10° 19:16:38 10° 186° (S) 2,578 5.7 -26.1°
Maximum altitude 19:22:14 50° 261° (W) 1,128 4.1 -27.1°
Drops below altitude 10° 19:27:42 10° 336° (NNW) 2,518 6.0 -28.1°
Sets 19:30:08 0° 342° (NNW) 3,432 6.7 -28.6°
